SCP
0 0 1 1 1 1 2 2 2 2 2 2 2 2 2 2 2 2 2 1 1 2 1 0 1 1 1 0 0 0 0 0 0 0 0 0 0 0 0 0 0 0 0
0 0 0 0 0 0 0 0 0 0 1 1 1 1 1 1 1 2 1 1 1 1 1 1 1 1 1 0 0 0 0 0 0 0 0 0 0 0 0 0 0 0 0
0 0 0 0 0 0 0 0 0 0 0 0 0 0 0 0 0 1 1 1 1 1 1 1 1 1 1 1 1 0 0 0 0 0 0 0 0 0 0 0 0 0 0
0 0 0 0 0 0 0 0 0 0 0 0 0 0 0 0 0 0 0 0 0 0 1 1 1 1 1 1 1 0 0 0 0 0 0 0 0 0 0 0 0 0 0
0 0 0 0 0 0 0 0 0 0 0 0 0 0 0 0 0 0 0 0 0 0 0 0 0 1 0 0 1 0 0 0 0 0 0 0 0 0 0 0 0 0 -0
0 0 0 0 0 0 0 0 0 0 0 0 0 0 0 0 0 0 0 0 0 0 0 0 0 0 0 0 0 0 0 0 0 0 0 0 0 0 0 0 0 0 0
0 0 0 0 0 0 0 0 0 0 0 0 0 0 0 0 0 0 0 0 0 0 0 0 0 0 0 0 0 0 0 0 0 0 0 0 0 0 0 0 0 0 0
0 0 0 0 0 0 0 0 0 0 0 0 0 0 0 0 0 0 0 0 0 0 0 0 0 0 0 0 0 0 0 0 0 0 0 0 0 0 0 0 0 0 0
0 0 0 0 0 0 0 0 0 0 0 0 0 0 0 0 0 0 0 0 0 0 0 0 0 0 0 0 0 0 0 0 0 0 0 0 0 0 0 0 0 0 0
0 0 0 0 0 0 0 0 0 0 0 0 0 0 0 0 0 0 0 0 0 0 0 0 0 0 0 0 0 0 0 0 0 0 0 0 0 0 0 0 0 0 0
0 0 0 0 0 0 0 0 0 0 0 0 0 0 0 0 0 0 0 0 0 0 0 0 0 0 0 0 0 0 0 0 0 0 0 0 0 0 0 0 0 0 0
0 0 0 0 0 0 0 0 0 0 0 0 0 0 0 0 0 0 0 0 0 0 0 0 0 0 0 0 0 0 0 0 0 0 0 0 0 0 0 0 0 0 0
0 0 0 0 0 0 0 0 0 0 0 0 0 0 0 0 0 0 0 0 0 0 0 0 0 0 0 0 0 0 0 0 0 0 0 0 0 0 0 0 0 0 0
0 0 0 0 0 0 0 0 0 0 0 0 0 0 0 0 0 0 0 0 0 0 0 0 0 0 0 0 0 0 0 0 0 0 0 0 0 0 0 0 0 0 0
0 0 0 0 0 0 0 0 0 0 0 0 0 0 0 0 0 0 0 0 0 0 0 -0 0 0 0 0 0 0 0 0 0 0 0 0 0 0 0 0 0 0 0
0 0 0 0 0 0 0 0 0 0 0 0 0 0 0 0 0 0 0 0 -0 -0 0 -0 0 0 0 0 0 0 0 0 0 0 0 0 0 0 -0 0 0 -0 0
0 0 0 0 0 0 0 0 0 0 0 0 0 0 0 0 0 0 0 -0 -0 -0 -0 -0 -0 -0 -0 -0 -0 -0 -0 0 0 -0 0 0 0 0 -0 -0 0 0 0
0 0 0 0 0 0 0 0 0 0 0 0 0 0 0 -0 -0 -0 -0 0 -0 0 0 0 0 0 0 0 0 -0 0 0 0 0 0 0 -0 -0 -0 -0 0 0 0
0 0 0 0 0 0 0 0 0 0 0 0 0 -0 -0 -0 -0 -0 -0 0 0 0 0 0 0 0 0 0 0 0 0 0 0 0 0 0 0 -0 -0 0 0 0 -0
0 0 0 0 0 0 0 0 0 0 0 0 0 -0 -0 -0 0 0 0 0 0 0 -0 0 0 0 0 0 0 0 0 0 0 -0 0 0 -0 0 -0 -0 0 0 0
0 0 0 0 0 0 0 0 0 0 0 0 0 0 0 0 0 0 0 0 0 0 0 0 0 0 0 0 0 0 0 0 0 -0 0 -0 -0 -0 0 0 -0 0 0
0 0 0 0 0 0 0 0 0 0 0 0 0 0 0 0 0 0 -0 -0 0 0 0 0 0 0 0 0 0 0 0 0 0 -0 0 0 0 0 0 0 0 0 0
0 0 0 0 0 0 0 0 0 0 0 0 0 0 0 0 0 0 0 0 0 0 0 0 0 0 0 0 0 0 0 0 0 0 0 0 0 0 0 0 0 0 0
0 0 0 0 0 0 0 0 0 0 0 0 0 0 0 0 0 0 0 0 0 0 0 0 0 0 0 0 0 0 0 0 -0 0 0 0 0 0 0 -0 -0 -0 0
0 0 0 0 0 0 0 0 0 0 0 0 0 0 0 0 0 0 0 0 0 0 0 0 -0 0 0 0 0 0 0 0 0 0 0 0 -0 -0 0 0 0 -0 -0
0 0 0 0 0 0 0 0 0 0 0 0 0 0 0 0 0 0 0 0 0 0 -0 0 -0 0 0 0 0 -0 -0 -0 -0 -0 -0 -0 -0 -0 -0 -0 -0 0 -0
Wind_Speed_500mb
13 9 11 9 9 6 10 17 26 36 38 47 41 35 34 39 49 53 58 61 62 61 58 62 67 69 70 68 70 69 66 62 65 59 61 71 68 65 45 37 44 50 56
13 6 6 11 16 19 26 29 34 40 43 45 46 48 47 49 52 54 61 69 71 73 75 76 81 83 86 83 85 86 82 77 79 84 72 66 69 44 45 62 66 65 65
6 3 7 11 18 23 29 33 36 40 43 45 47 48 54 57 59 62 65 63 67 72 78 81 86 88 86 81 80 80 77 74 68 66 66 53 45 63 75 50 50 53 57
8 10 14 19 27 33 35 38 41 43 45 48 49 52 54 55 58 61 64 69 73 74 70 75 79 82 87 87 88 89 90 90 88 94 92 81 74 73 55 50 37 32 35
17 20 25 27 30 34 38 43 49 53 56 57 59 59 60 61 63 59 61 66 69 72 76 79 77 72 73 78 84 90 87 86 85 77 74 68 61 53 59 57 55 52 57
25 29 33 36 39 41 46 51 54 53 53 53 56 59 66 68 65 65 70 78 82 87 94 96 95 90 84 82 75 72 69 70 82 78 74 70 64 57 38 42 49 45 63
32 35 39 43 46 48 49 49 50 52 56 58 63 66 70 69 64 64 70 76 85 91 91 88 87 80 73 72 73 75 85 90 85 82 89 88 81 78 73 72 58 48 57
39 41 44 47 49 49 49 52 56 61 62 58 55 54 58 61 60 69 77 82 86 90 93 95 97 97 92 88 89 91 86 80 74 78 88 91 93 92 78 73 65 63 60
44 47 47 48 52 56 59 57 57 63 69 73 75 79 84 90 90 88 87 89 92 94 94 95 95 95 96 88 84 89 90 93 90 91 88 72 75 75 77 72 65 59 57
47 49 51 53 53 54 57 63 71 76 83 90 91 86 88 90 84 78 79 85 89 89 89 86 84 82 82 74 63 60 62 62 62 63 64 64 65 69 64 67 65 60 55
49 51 50 52 60 65 74 81 85 86 92 86 76 66 63 63 62 57 55 58 58 59 60 58 54 51 47 48 46 52 60 66 71 69 62 61 57 61 64 65 64 63 69
44 50 58 65 71 79 83 84 73 64 60 54 53 58 60 60 61 62 53 43 43 48 47 51 53 53 53 56 58 62 66 68 70 74 72 58 52 50 59 64 62 63 70
64 68 72 75 67 58 56 53 53 45 44 52 56 62 66 64 59 49 47 50 40 45 49 50 51 58 57 59 58 65 69 73 70 70 70 66 71 73 66 58 61 64 69
70 67 63 58 54 50 46 45 42 41 46 49 53 61 65 63 57 51 49 36 35 38 45 52 59 63 60 62 59 58 62 61 61 65 70 68 63 59 59 60 58 55 51
58 57 54 49 46 45 40 36 38 42 40 45 50 55 59 64 60 51 49 50 47 49 55 51 48 51 52 50 55 55 61 58 65 69 72 73 70 52 45 46 49 42 45
53 50 46 44 42 40 41 43 40 39 38 39 40 42 49 47 44 43 41 37 38 42 45 41 45 40 39 50 59 52 55 63 71 78 80 78 77 74 76 44 48 46 44
42 41 41 40 40 40 39 42 49 44 39 35 33 34 37 43 37 32 29 19 10 12 29 29 33 43 51 47 44 40 39 38 37 34 75 76 78 63 54 78 60 44 44
37 33 34 37 36 34 34 38 38 42 47 51 34 32 33 26 18 10 9 9 1 16 34 31 44 45 43 45 24 33 40 40 27 9 17 43 51 50 54 57 54 52 50
31 28 31 31 29 36 36 38 32 47 51 47 38 32 33 32 24 15 13 15 25 34 28 44 36 34 45 16 11 21 20 6 3 19 34 39 46 55 56 51 50 53 54
24 24 26 26 34 37 32 29 41 38 43 42 34 41 39 33 26 26 22 26 26 26 47 26 27 41 19 4 7 10 8 11 18 50 43 34 38 35 53 49 44 43 40
23 27 22 27 31 26 26 28 33 37 36 46 43 35 29 32 34 33 36 20 23 38 33 17 33 33 19 24 16 5 10 8 14 45 36 62 65 50 62 41 50 47 36
24 28 28 26 22 17 24 30 30 33 34 53 59 42 31 26 32 29 23 21 31 22 2 21 26 36 26 10 21 28 31 36 38 34 38 34 44 41 46 39 40 38 28
23 25 27 28 27 21 16 21 28 31 35 41 43 43 41 32 27 25 25 26 22 9 4 19 36 32 26 29 14 28 30 34 23 32 30 40 36 39 27 30 33 26 22
26 28 30 31 32 30 26 23 25 26 27 26 31 39 45 46 34 32 31 27 18 13 13 26 24 9 18 13 34 38 41 51 54 40 39 41 41 35 37 38 26 18 14
32 33 35 36 35 35 32 32 26 26 31 32 33 35 37 45 43 43 33 25 35 17 15 36 22 8 22 23 31 32 34 36 41 43 42 36 31 28 36 25 21 8 5
42 41 42 43 43 40 38 36 36 33 31 32 34 34 34 39 42 46 54 45 45 29 28 25 26 31 32 25 23 25 25 31 38 33 30 34 31 24 26 18 16 15 1
Wind_Direction_500mb
95 105 132 147 195 232 243 236 233 233 231 234 236 239 245 255 265 263 261 262 263 261 261 264 266 268 266 267 270 270 271 273 274 279 281 285 287 295 301 298 301 299 296
58 50 247 224 232 243 248 246 247 251 254 255 256 258 257 255 257 263 264 261 260 260 261 262 264 268 269 268 266 266 267 268 273 278 279 280 288 279 279 293 293 286 288
49 12 310 302 280 273 274 279 279 278 276 275 272 267 264 262 260 259 262 268 270 267 269 268 266 265 264 264 262 264 264 268 273 277 279 281 267 278 290 293 300 296 292
329 319 308 303 297 298 296 294 290 286 282 278 275 272 270 267 265 264 264 266 266 268 269 271 270 268 265 265 265 267 268 269 267 266 269 271 273 277 275 278 275 286 291
314 307 300 299 294 290 286 282 282 283 284 285 283 280 277 275 274 276 276 274 271 270 267 267 269 272 273 272 271 270 270 268 267 263 265 266 265 257 267 263 271 279 283
308 305 300 300 297 294 293 293 294 294 291 287 282 279 276 275 273 270 267 269 271 271 270 268 266 263 259 257 258 261 265 269 263 258 259 260 259 257 256 275 278 283 283
302 301 300 299 298 297 296 292 290 288 284 281 280 281 284 286 288 280 274 272 270 271 273 274 274 273 271 270 270 270 268 267 264 264 263 258 258 256 259 264 271 273 269
300 300 301 301 300 299 296 291 288 286 287 288 284 278 274 271 268 267 268 271 272 273 274 275 276 277 278 277 273 267 263 258 255 255 256 258 258 260 258 260 261 264 270
302 304 304 303 301 299 297 296 287 280 278 278 277 278 278 279 280 283 283 280 277 275 274 273 275 276 274 270 270 269 266 263 264 259 260 261 261 260 259 262 251 249 264
307 306 305 304 303 295 285 283 281 282 284 287 289 289 288 287 286 287 285 282 279 277 278 278 278 279 278 273 262 268 265 268 272 268 267 261 257 257 251 247 249 244 239
306 304 301 294 287 286 283 283 287 290 289 288 288 291 295 295 293 291 287 284 284 284 284 284 285 287 286 277 265 268 266 273 272 270 267 262 260 249 241 237 234 237 247
298 290 291 291 292 296 295 294 294 294 292 292 296 297 299 299 299 299 297 290 290 281 278 282 289 292 284 272 268 267 268 270 270 263 257 257 250 241 239 237 236 246 259
294 298 299 302 302 305 305 305 306 304 307 304 306 306 307 309 306 301 290 290 281 277 279 281 284 286 284 286 266 260 264 266 262 259 256 255 255 253 253 246 244 242 251
305 309 313 316 316 315 310 307 306 308 308 308 306 302 304 302 296 291 289 279 271 281 279 278 280 285 282 283 285 279 271 261 258 255 254 254 255 254 251 244 243 243 232
315 320 325 327 326 327 327 327 323 320 318 311 305 301 301 297 297 296 285 281 272 268 280 289 287 291 294 288 286 285 273 267 261 255 252 250 244 235 237 239 229 226 233
326 331 333 334 337 339 338 337 337 333 330 324 315 302 298 297 302 298 293 284 275 269 277 287 300 306 308 301 297 288 275 270 261 257 254 249 243 240 229 221 224 227 213
333 339 341 343 342 343 347 346 343 355 348 341 330 321 315 310 311 310 305 290 272 266 284 301 311 307 310 297 294 268 291 289 296 261 243 234 232 218 216 216 225 219 208
343 346 344 348 351 353 355 351 349 351 351 350 354 348 349 350 344 359 67 70 114 312 326 334 325 308 300 304 235 257 304 318 350 39 133 186 190 195 192 193 203 203 203
348 349 350 360 6 4 358 350 346 354 353 353 7 18 23 18 21 23 13 341 330 338 343 328 312 309 334 186 273 319 306 360 91 102 122 139 154 162 172 184 191 188 188
355 355 4 11 12 3 359 356 349 347 350 1 7 2 353 359 2 351 329 331 327 333 336 327 310 332 336 240 286 42 24 136 148 109 105 120 138 153 162 160 170 186 197
1 1 6 23 7 355 3 1 353 356 10 19 8 0 350 341 343 339 335 323 323 335 326 326 346 15 355 318 325 99 97 117 126 135 162 137 132 147 166 147 149 171 189
8 4 9 9 3 2 359 356 4 2 19 7 2 23 27 12 12 22 8 342 339 336 103 346 14 3 7 105 112 70 93 96 88 75 106 120 124 146 138 129 143 153 157
20 14 18 16 14 7 358 358 356 5 22 2 1 21 25 19 3 360 345 354 5 60 90 10 15 45 118 141 61 42 77 82 83 94 89 89 90 105 107 132 146 157 152
34 26 25 22 21 22 18 13 12 6 9 15 15 16 18 24 28 20 9 13 13 158 229 320 356 67 143 82 41 58 85 80 82 89 89 86 87 82 73 96 119 139 143
43 37 33 30 25 26 28 29 26 19 16 19 18 18 15 20 29 20 51 64 52 28 333 352 58 341 129 59 74 77 87 83 76 79 75 70 74 83 69 78 61 87 171
52 48 45 42 38 34 32 32 31 27 23 19 15 13 16 21 24 26 53 56 55 48 35 27 49 80 96 99 90 91 96 98 89 79 79 64 53 58 66 46 75 47 30
Wind_Speed_850mb
13 9 11 9 9 6 10 17 26 36 38 47 41 35 34 39 49 53 58 61 62 61 58 62 67 69 70 68 70 69 66 62 65 59 61 71 68 65 45 37 44 50 56
13 6 6 11 16 19 26 29 34 40 43 45 46 48 47 49 52 54 61 69 71 73 75 76 81 83 86 83 85 86 82 77 79 84 72 66 69 44 45 62 66 65 65
6 3 7 11 18 23 29 33 36 40 43 45 47 48 54 57 59 62 65 63 67 72 78 81 86 88 86 81 80 80 77 74 68 66 66 53 45 63 75 50 50 53 57
8 10 14 19 27 33 35 38 41 43 45 48 49 52 54 55 58 61 64 69 73 74 70 75 79 82 87 87 88 89 90 90 88 94 92 81 74 73 55 50 37 32 35
17 20 25 27 30 34 38 43 49 53 56 57 59 59 60 61 63 59 61 66 69 72 76 79 77 72 73 78 84 90 87 86 85 77 74 68 61 53 59 57 55 52 57
25 29 33 36 39 41 46 51 54 53 53 53 56 59 66 68 65 65 70 78 82 87 94 96 95 90 84 82 75 72 69 70 82 78 74 70 64 57 38 42 49 45 63
32 35 39 43 46 48 49 49 50 52 56 58 63 66 70 69 64 64 70 76 85 91 91 88 87 80 73 72 73 75 85 90 85 82 89 88 81 78 73 72 58 48 57
39 41 44 47 49 49 49 52 56 61 62 58 55 54 58 61 60 69 77 82 86 90 93 95 97 97 92 88 89 91 86 80 74 78 88 91 93 92 78 73 65 63 60
44 47 47 48 52 56 59 57 57 63 69 73 75 79 84 90 90 88 87 89 92 94 94 95 95 95 96 88 84 89 90 93 90 91 88 72 75 75 77 72 65 59 57
47 49 51 53 53 54 57 63 71 76 83 90 91 86 88 90 84 78 79 85 89 89 89 86 84 82 82 74 63 60 62 62 62 63 64 64 65 69 64 67 65 60 55
49 51 50 52 60 65 74 81 85 86 92 86 76 66 63 63 62 57 55 58 58 59 60 58 54 51 47 48 46 52 60 66 71 69 62 61 57 61 64 65 64 63 69
44 50 58 65 71 79 83 84 73 64 60 54 53 58 60 60 61 62 53 43 43 48 47 51 53 53 53 56 58 62 66 68 70 74 72 58 52 50 59 64 62 63 70
64 68 72 75 67 58 56 53 53 45 44 52 56 62 66 64 59 49 47 50 40 45 49 50 51 58 57 59 58 65 69 73 70 70 70 66 71 73 66 58 61 64 69
70 67 63 58 54 50 46 45 42 41 46 49 53 61 65 63 57 51 49 36 35 38 45 52 59 63 60 62 59 58 62 61 61 65 70 68 63 59 59 60 58 55 51
58 57 54 49 46 45 40 36 38 42 40 45 50 55 59 64 60 51 49 50 47 49 55 51 48 51 52 50 55 55 61 58 65 69 72 73 70 52 45 46 49 42 45
53 50 46 44 42 40 41 43 40 39 38 39 40 42 49 47 44 43 41 37 38 42 45 41 45 40 39 50 59 52 55 63 71 78 80 78 77 74 76 44 48 46 44
42 41 41 40 40 40 39 42 49 44 39 35 33 34 37 43 37 32 29 19 10 12 29 29 33 43 51 47 44 40 39 38 37 34 75 76 78 63 54 78 60 44 44
37 33 34 37 36 34 34 38 38 42 47 51 34 32 33 26 18 10 9 9 1 16 34 31 44 45 43 45 24 33 40 40 27 9 17 43 51 50 54 57 54 52 50
31 28 31 31 29 36 36 38 32 47 51 47 38 32 33 32 24 15 13 15 25 34 28 44 36 34 45 16 11 21 20 6 3 19 34 39 46 55 56 51 50 53 54
24 24 26 26 34 37 32 29 41 38 43 42 34 41 39 33 26 26 22 26 26 26 47 26 27 41 19 4 7 10 8 11 18 50 43 34 38 35 53 49 44 43 40
23 27 22 27 31 26 26 28 33 37 36 46 43 35 29 32 34 33 36 20 23 38 33 17 33 33 19 24 16 5 10 8 14 45 36 62 65 50 62 41 50 47 36
24 28 28 26 22 17 24 30 30 33 34 53 59 42 31 26 32 29 23 21 31 22 2 21 26 36 26 10 21 28 31 36 38 34 38 34 44 41 46 39 40 38 28
23 25 27 28 27 21 16 21 28 31 35 41 43 43 41 32 27 25 25 26 22 9 4 19 36 32 26 29 14 28 30 34 23 32 30 40 36 39 27 30 33 26 22
26 28 30 31 32 30 26 23 25 26 27 26 31 39 45 46 34 32 31 27 18 13 13 26 24 9 18 13 34 38 41 51 54 40 39 41 41 35 37 38 26 18 14
32 33 35 36 35 35 32 32 26 26 31 32 33 35 37 45 43 43 33 25 35 17 15 36 22 8 22 23 31 32 34 36 41 43 42 36 31 28 36 25 21 8 5
42 41 42 43 43 40 38 36 36 33 31 32 34 34 34 39 42 46 54 45 45 29 28 25 26 31 32 25 23 25 25 31 38 33 30 34 31 24 26 18 16 15 1
Wind_Direction_850mb
95 105 132 147 195 232 243 236 233 233 231 234 236 239 245 255 265 263 261 262 263 261 261 264 266 268 266 267 270 270 271 273 274 279 281 285 287 295 301 298 301 299 296
58 50 247 224 232 243 248 246 247 251 254 255 256 258 257 255 257 263 264 261 260 260 261 262 264 268 269 268 266 266 267 268 273 278 279 280 288 279 279 293 293 286 288
49 12 310 302 280 273 274 279 279 278 276 275 272 267 264 262 260 259 262 268 270 267 269 268 266 265 264 264 262 264 264 268 273 277 279 281 267 278 290 293 300 296 292
329 319 308 303 297 298 296 294 290 286 282 278 275 272 270 267 265 264 264 266 266 268 269 271 270 268 265 265 265 267 268 269 267 266 269 271 273 277 275 278 275 286 291
314 307 300 299 294 290 286 282 282 283 284 285 283 280 277 275 274 276 276 274 271 270 267 267 269 272 273 272 271 270 270 268 267 263 265 266 265 257 267 263 271 279 283
308 305 300 300 297 294 293 293 294 294 291 287 282 279 276 275 273 270 267 269 271 271 270 268 266 263 259 257 258 261 265 269 263 258 259 260 259 257 256 275 278 283 283
302 301 300 299 298 297 296 292 290 288 284 281 280 281 284 286 288 280 274 272 270 271 273 274 274 273 271 270 270 270 268 267 264 264 263 258 258 256 259 264 271 273 269
300 300 301 301 300 299 296 291 288 286 287 288 284 278 274 271 268 267 268 271 272 273 274 275 276 277 278 277 273 267 263 258 255 255 256 258 258 260 258 260 261 264 270
302 304 304 303 301 299 297 296 287 280 278 278 277 278 278 279 280 283 283 280 277 275 274 273 275 276 274 270 270 269 266 263 264 259 260 261 261 260 259 262 251 249 264
307 306 305 304 303 295 285 283 281 282 284 287 289 289 288 287 286 287 285 282 279 277 278 278 278 279 278 273 262 268 265 268 272 268 267 261 257 257 251 247 249 244 239
306 304 301 294 287 286 283 283 287 290 289 288 288 291 295 295 293 291 287 284 284 284 284 284 285 287 286 277 265 268 266 273 272 270 267 262 260 249 241 237 234 237 247
298 290 291 291 292 296 295 294 294 294 292 292 296 297 299 299 299 299 297 290 290 281 278 282 289 292 284 272 268 267 268 270 270 263 257 257 250 241 239 237 236 246 259
294 298 299 302 302 305 305 305 306 304 307 304 306 306 307 309 306 301 290 290 281 277 279 281 284 286 284 286 266 260 264 266 262 259 256 255 255 253 253 246 244 242 251
305 309 313 316 316 315 310 307 306 308 308 308 306 302 304 302 296 291 289 279 271 281 279 278 280 285 282 283 285 279 271 261 258 255 254 254 255 254 251 244 243 243 232
315 320 325 327 326 327 327 327 323 320 318 311 305 301 301 297 297 296 285 281 272 268 280 289 287 291 294 288 286 285 273 267 261 255 252 250 244 235 237 239 229 226 233
326 331 333 334 337 339 338 337 337 333 330 324 315 302 298 297 302 298 293 284 275 269 277 287 300 306 308 301 297 288 275 270 261 257 254 249 243 240 229 221 224 227 213
333 339 341 343 342 343 347 346 343 355 348 341 330 321 315 310 311 310 305 290 272 266 284 301 311 307 310 297 294 268 291 289 296 261 243 234 232 218 216 216 225 219 208
343 346 344 348 351 353 355 351 349 351 351 350 354 348 349 350 344 359 67 70 114 312 326 334 325 308 300 304 235 257 304 318 350 39 133 186 190 195 192 193 203 203 203
348 349 350 360 6 4 358 350 346 354 353 353 7 18 23 18 21 23 13 341 330 338 343 328 312 309 334 186 273 319 306 360 91 102 122 139 154 162 172 184 191 188 188
355 355 4 11 12 3 359 356 349 347 350 1 7 2 353 359 2 351 329 331 327 333 336 327 310 332 336 240 286 42 24 136 148 109 105 120 138 153 162 160 170 186 197
1 1 6 23 7 355 3 1 353 356 10 19 8 0 350 341 343 339 335 323 323 335 326 326 346 15 355 318 325 99 97 117 126 135 162 137 132 147 166 147 149 171 189
8 4 9 9 3 2 359 356 4 2 19 7 2 23 27 12 12 22 8 342 339 336 103 346 14 3 7 105 112 70 93 96 88 75 106 120 124 146 138 129 143 153 157
20 14 18 16 14 7 358 358 356 5 22 2 1 21 25 19 3 360 345 354 5 60 90 10 15 45 118 141 61 42 77 82 83 94 89 89 90 105 107 132 146 157 152
34 26 25 22 21 22 18 13 12 6 9 15 15 16 18 24 28 20 9 13 13 158 229 320 356 67 143 82 41 58 85 80 82 89 89 86 87 82 73 96 119 139 143
43 37 33 30 25 26 28 29 26 19 16 19 18 18 15 20 29 20 51 64 52 28 333 352 58 341 129 59 74 77 87 83 76 79 75 70 74 83 69 78 61 87 171
52 48 45 42 38 34 32 32 31 27 23 19 15 13 16 21 24 26 53 56 55 48 35 27 49 80 96 99 90 91 96 98 89 79 79 64 53 58 66 46 75 47 30